{"data":{"norad_id":68378,"epoch":"2026-05-24T10:43:11.378208Z","epoch_age_seconds":125968,"freshness":"FRESH","line1":"1 68378U 26062B   26144.44665947  .00001340  00000+0  65917-4 0  9999","line2":"2 68378  97.4365 152.0957 0004363  69.9215 290.2489 15.19722981  9047","mean_motion":15.19722981,"eccentricity":0.0004363,"inclination_deg":97.4365,"raan_deg":152.0957,"arg_perigee_deg":69.9215,"mean_anomaly_deg":290.2489,"bstar":6.5917e-5,"rev_number":904,"period_min":94.754110979651,"perigee_km":503.67329664146,"apogee_km":509.68098546094,"semimajor_km":6884.8141410512,"source":"CELESTRAK","updated_at":"2026-05-25T13:38:07.769018Z"}}